GLD1744 SBLJ-SSCN

Flight info

Callsign GLD1744
Flight time 1h 21m
Altitude 6500
Route DCT 2757S05031W 2830S05056W 2913S05053W REA
Aircraft C152/L-SDFGIRY/S

Departure

Time 2026-05-04 16:14
Airport Lages Airport (SBLJ)

Arrival

Time 2026-05-04 17:35
Airport Canela Airport (SSCN)
Time Latitude Longitude Altitude Speed Heading
2026-05-04 15:37 -27.78187 -50.28028 3051 ft 0 kts 150°
2026-05-04 16:05 -27.78197 -50.28021 3046 ft 6 kts 142°
2026-05-04 16:06 -27.78242 -50.28027 3047 ft 11 kts 236°
2026-05-04 16:06 -27.78449 -50.27982 3055 ft 20 kts 147°
2026-05-04 16:07 -27.78592 -50.27885 3058 ft 21 kts 152°
2026-05-04 16:07 -27.78767 -50.27757 3064 ft 3 kts 333°
2026-05-04 16:08 -27.78761 -50.27760 3063 ft 0 kts 331°
2026-05-04 16:08 -27.78257 -50.28043 3048 ft 72 kts 327°
2026-05-04 16:09 -27.78000 -50.28300 3036 ft 11 kts 159°
2026-05-04 16:09 -27.78170 -50.28186 3045 ft 15 kts 147°
2026-05-04 16:10 -27.78304 -50.28086 3050 ft 13 kts 142°
2026-05-04 16:11 -27.78591 -50.27883 3058 ft 20 kts 149°
2026-05-04 16:11 -27.78695 -50.27807 3062 ft 17 kts 147°
2026-05-04 16:12 -27.78758 -50.27768 3064 ft 14 kts 332°
2026-05-04 16:12 -27.77608 -50.28552 3254 ft 88 kts 323°
2026-05-04 16:13 -27.76706 -50.29515 3372 ft 99 kts 286°
2026-05-04 16:13 -27.77387 -50.30831 3620 ft 98 kts 232°
2026-05-04 16:14 -27.78260 -50.31966 3923 ft 96 kts 232°
2026-05-04 16:14 -27.79165 -50.33034 4121 ft 95 kts 230°
2026-05-04 16:15 -27.80664 -50.34692 4408 ft 102 kts 230°
2026-05-04 16:16 -27.81724 -50.35824 4474 ft 109 kts 228°
2026-05-04 16:16 -27.83506 -50.37508 4464 ft 111 kts 225°
2026-05-04 16:17 -27.84711 -50.38612 4476 ft 111 kts 225°
2026-05-04 16:18 -27.86519 -50.40254 4480 ft 113 kts 221°
2026-05-04 16:18 -27.87173 -50.40753 4496 ft 114 kts 218°
2026-05-04 16:19 -27.89209 -50.42258 4475 ft 117 kts 219°
2026-05-04 16:19 -27.90579 -50.43280 4481 ft 119 kts 217°
2026-05-04 16:20 -27.92414 -50.44684 4491 ft 122 kts 219°
2026-05-04 16:20 -27.93785 -50.45690 4621 ft 109 kts 218°
2026-05-04 16:21 -27.95670 -50.47002 5007 ft 103 kts 218°
2026-05-04 16:22 -27.96958 -50.47877 4908 ft 119 kts 218°
2026-05-04 16:22 -27.99100 -50.49379 4533 ft 119 kts 218°
2026-05-04 16:23 -28.01109 -50.50840 4456 ft 110 kts 219°
2026-05-04 16:24 -28.03569 -50.52541 4472 ft 103 kts 216°
2026-05-04 16:25 -28.04803 -50.53401 4455 ft 103 kts 220°
2026-05-04 16:26 -28.07259 -50.55192 4462 ft 103 kts 220°
2026-05-04 16:26 -28.09044 -50.56545 4478 ft 105 kts 221°
2026-05-04 16:27 -28.10250 -50.57513 4480 ft 107 kts 221°
2026-05-04 16:28 -28.12023 -50.58973 4484 ft 105 kts 222°
2026-05-04 16:28 -28.13758 -50.60476 4454 ft 100 kts 222°
2026-05-04 16:29 -28.15967 -50.62457 4480 ft 105 kts 220°
2026-05-04 16:30 -28.18097 -50.63239 4475 ft 109 kts 200°
2026-05-04 16:31 -28.19563 -50.63707 4468 ft 109 kts 199°
2026-05-04 16:31 -28.21788 -50.64402 4473 ft 110 kts 199°
2026-05-04 16:32 -28.23942 -50.65240 4465 ft 106 kts 217°
2026-05-04 16:33 -28.25222 -50.65846 4453 ft 106 kts 157°
2026-05-04 16:33 -28.26242 -50.64665 4486 ft 107 kts 129°
2026-05-04 16:34 -28.27228 -50.63377 4456 ft 107 kts 129°
2026-05-04 16:34 -28.27719 -50.62776 4368 ft 101 kts 129°
2026-05-04 16:35 -28.29450 -50.61514 4418 ft 102 kts 153°
2026-05-04 16:35 -28.31389 -50.60559 4438 ft 103 kts 158°
2026-05-04 16:36 -28.32064 -50.60259 4434 ft 105 kts 159°
2026-05-04 16:36 -28.33410 -50.59664 4431 ft 104 kts 158°
2026-05-04 16:37 -28.34771 -50.59094 4442 ft 103 kts 160°
2026-05-04 16:37 -28.35439 -50.58823 4444 ft 103 kts 158°
2026-05-04 16:37 -28.36757 -50.58181 4447 ft 102 kts 155°
2026-05-04 16:38 -28.38045 -50.57523 4378 ft 99 kts 155°
2026-05-04 16:39 -28.39885 -50.56457 4388 ft 98 kts 148°
2026-05-04 16:39 -28.41067 -50.55647 4413 ft 100 kts 147°
2026-05-04 16:40 -28.42267 -50.54794 4461 ft 104 kts 146°
2026-05-04 16:40 -28.43515 -50.53891 4486 ft 110 kts 147°
2026-05-04 16:41 -28.44809 -50.52949 4468 ft 110 kts 146°
2026-05-04 16:41 -28.46738 -50.51565 4456 ft 108 kts 146°
2026-05-04 16:42 -28.48612 -50.50234 4460 ft 106 kts 147°
2026-05-04 16:43 -28.49869 -50.49321 4479 ft 109 kts 146°
2026-05-04 16:43 -28.51160 -50.48391 4474 ft 111 kts 146°
2026-05-04 16:43 -28.51811 -50.47925 4468 ft 110 kts 146°
2026-05-04 16:44 -28.54350 -50.46071 4450 ft 108 kts 146°
2026-05-04 16:45 -28.55616 -50.45160 4463 ft 109 kts 146°
2026-05-04 16:46 -28.57537 -50.45085 4474 ft 105 kts 234°
2026-05-04 16:46 -28.58351 -50.46455 4461 ft 105 kts 240°
2026-05-04 16:47 -28.59211 -50.47748 4449 ft 102 kts 228°
2026-05-04 16:47 -28.60277 -50.48830 4459 ft 103 kts 224°
2026-05-04 16:48 -28.61934 -50.50420 4460 ft 104 kts 221°
2026-05-04 16:48 -28.62502 -50.50934 4460 ft 106 kts 221°
2026-05-04 16:49 -28.63645 -50.51983 4457 ft 105 kts 221°
2026-05-04 16:49 -28.64755 -50.53055 4452 ft 104 kts 222°
2026-05-04 16:50 -28.65839 -50.54132 4450 ft 103 kts 223°
2026-05-04 16:50 -28.66916 -50.55218 4454 ft 104 kts 222°
2026-05-04 16:51 -28.68015 -50.56319 4461 ft 106 kts 223°
2026-05-04 16:51 -28.68573 -50.56874 4471 ft 108 kts 222°
2026-05-04 16:51 -28.69812 -50.57864 4454 ft 110 kts 213°
2026-05-04 16:52 -28.71095 -50.58759 4450 ft 108 kts 212°
2026-05-04 16:52 -28.71734 -50.59204 4446 ft 106 kts 211°
2026-05-04 16:53 -28.72997 -50.60087 4448 ft 106 kts 211°
2026-05-04 16:53 -28.74898 -50.61427 4436 ft 105 kts 211°
2026-05-04 16:54 -28.75516 -50.61863 4432 ft 104 kts 211°
2026-05-04 16:55 -28.77615 -50.64172 4448 ft 108 kts 227°
2026-05-04 16:55 -28.78608 -50.65438 4440 ft 106 kts 228°
2026-05-04 16:56 -28.79592 -50.66674 4439 ft 104 kts 220°
2026-05-04 16:56 -28.81406 -50.68039 4463 ft 106 kts 209°
2026-05-04 16:57 -28.82048 -50.68467 4445 ft 107 kts 208°
2026-05-04 16:57 -28.83319 -50.69304 4447 ft 106 kts 208°
2026-05-04 16:58 -28.85227 -50.70551 4450 ft 106 kts 208°
2026-05-04 16:58 -28.85869 -50.70964 4434 ft 105 kts 206°
2026-05-04 16:59 -28.87164 -50.71747 4426 ft 104 kts 206°
2026-05-04 17:00 -28.89705 -50.73400 4427 ft 103 kts 207°
2026-05-04 17:00 -28.91534 -50.74633 4424 ft 101 kts 208°
2026-05-04 17:01 -28.92719 -50.75502 4444 ft 102 kts 210°
2026-05-04 17:01 -28.93928 -50.76408 4442 ft 104 kts 211°
2026-05-04 17:02 -28.95145 -50.77311 4441 ft 105 kts 210°
2026-05-04 17:02 -28.96280 -50.78351 4439 ft 105 kts 225°
2026-05-04 17:03 -28.96752 -50.78996 4430 ft 106 kts 229°
2026-05-04 17:03 -28.97196 -50.79647 4427 ft 103 kts 230°
2026-05-04 17:03 -28.98060 -50.80963 4420 ft 102 kts 230°
2026-05-04 17:04 -28.98920 -50.82279 4441 ft 105 kts 230°
2026-05-04 17:04 -28.99812 -50.83612 4451 ft 107 kts 230°
2026-05-04 17:05 -29.00728 -50.84968 4443 ft 108 kts 230°
2026-05-04 17:05 -29.01636 -50.86301 4427 ft 105 kts 230°
2026-05-04 17:06 -29.02525 -50.87631 4432 ft 105 kts 231°
2026-05-04 17:06 -29.02967 -50.88297 4425 ft 104 kts 231°
2026-05-04 17:07 -29.03838 -50.89623 4444 ft 105 kts 231°
2026-05-04 17:07 -29.03987 -50.89851 4450 ft 106 kts 230°
2026-05-04 17:07 -29.04738 -50.90975 4444 ft 107 kts 231°
2026-05-04 17:07 -29.05188 -50.91650 4447 ft 107 kts 230°
2026-05-04 17:08 -29.05640 -50.92321 4434 ft 106 kts 230°
2026-05-04 17:08 -29.06538 -50.93638 4435 ft 104 kts 230°
2026-05-04 17:08 -29.06834 -50.94071 4434 ft 104 kts 230°
2026-05-04 17:09 -29.07277 -50.94719 4436 ft 103 kts 230°
2026-05-04 17:09 -29.07718 -50.95362 4439 ft 103 kts 230°
2026-05-04 17:09 -29.08309 -50.96215 4438 ft 103 kts 229°
2026-05-04 17:10 -29.09049 -50.97287 4442 ft 103 kts 230°
2026-05-04 17:10 -29.10376 -50.99201 4452 ft 103 kts 230°
2026-05-04 17:11 -29.10825 -50.99845 4454 ft 103 kts 230°
2026-05-04 17:11 -29.11274 -51.00486 4451 ft 103 kts 230°
2026-05-04 17:11 -29.12017 -51.01883 4456 ft 103 kts 244°
2026-05-04 17:12 -29.12271 -51.02655 4456 ft 104 kts 251°
2026-05-04 17:12 -29.12652 -51.04242 4448 ft 104 kts 257°
2026-05-04 17:13 -29.13304 -51.06510 4454 ft 100 kts 218°
2026-05-04 17:14 -29.14554 -51.08396 4507 ft 99 kts 232°
2026-05-04 17:14 -29.15073 -51.08887 4520 ft 100 kts 187°
2026-05-04 17:14 -29.16176 -51.08013 4522 ft 100 kts 132°
2026-05-04 17:15 -29.16640 -51.07419 4512 ft 100 kts 131°
2026-05-04 17:15 -29.17543 -51.06212 4515 ft 100 kts 130°
2026-05-04 17:16 -29.18278 -51.04872 4509 ft 100 kts 115°
2026-05-04 17:16 -29.19052 -51.02661 4508 ft 100 kts 108°
2026-05-04 17:17 -29.19265 -51.01914 4502 ft 100 kts 107°
2026-05-04 17:17 -29.19573 -50.99571 4525 ft 99 kts 94°
2026-05-04 17:18 -29.19593 -50.98782 4522 ft 99 kts 89°
2026-05-04 17:18 -29.19562 -50.97195 4525 ft 100 kts 87°
2026-05-04 17:19 -29.19670 -50.95613 4524 ft 101 kts 104°
2026-05-04 17:19 -29.20128 -50.94087 4528 ft 103 kts 112°
2026-05-04 17:20 -29.20705 -50.92578 4528 ft 104 kts 113°
2026-05-04 17:20 -29.21305 -50.91057 4521 ft 105 kts 114°
2026-05-04 17:20 -29.21605 -50.90304 4517 ft 105 kts 114°
2026-05-04 17:21 -29.22212 -50.88775 4522 ft 106 kts 114°
2026-05-04 17:21 -29.22823 -50.87228 4513 ft 107 kts 113°
2026-05-04 17:22 -29.23130 -50.86457 4502 ft 106 kts 113°
2026-05-04 17:22 -29.23626 -50.85891 4494 ft 103 kts 161°
2026-05-04 17:23 -29.25577 -50.85007 4520 ft 101 kts 165°
2026-05-04 17:23 -29.26264 -50.84835 4510 ft 101 kts 169°
2026-05-04 17:23 -29.27619 -50.84490 4499 ft 99 kts 168°
2026-05-04 17:24 -29.28280 -50.84312 4508 ft 99 kts 167°
2026-05-04 17:24 -29.30343 -50.83819 4497 ft 101 kts 174°
2026-05-04 17:25 -29.31040 -50.83717 4497 ft 100 kts 174°
2026-05-04 17:25 -29.32424 -50.83537 4485 ft 100 kts 175°
2026-05-04 17:26 -29.33825 -50.83364 4489 ft 102 kts 175°
2026-05-04 17:26 -29.35773 -50.83759 4417 ft 103 kts 217°
2026-05-04 17:27 -29.36989 -50.84729 4036 ft 105 kts 218°
2026-05-04 17:27 -29.38248 -50.85150 3793 ft 100 kts 142°
2026-05-04 17:28 -29.39156 -50.84042 3678 ft 89 kts 124°
2026-05-04 17:29 -29.38340 -50.82341 3833 ft 94 kts 40°
2026-05-04 17:29 -29.36913 -50.80660 3871 ft 99 kts 41°
2026-05-04 17:30 -29.35334 -50.79832 3703 ft 87 kts 322°
2026-05-04 17:31 -29.35300 -50.81116 3665 ft 89 kts 259°
2026-05-04 17:31 -29.35923 -50.83074 4032 ft 96 kts 264°
2026-05-04 17:32 -29.36613 -50.84544 4078 ft 108 kts 244°
2026-05-04 17:33 -29.37665 -50.86614 3903 ft 83 kts 245°
2026-05-04 17:33 -29.38161 -50.87011 3909 ft 96 kts 195°
2026-05-04 17:34 -29.38726 -50.85519 3592 ft 98 kts 49°
2026-05-04 17:34 -29.38331 -50.84879 3309 ft 99 kts 46°
2026-05-04 17:35 -29.37030 -50.83205 2692 ft 80 kts 44°
2026-05-04 17:35 -29.36710 -50.82785 2692 ft 10 kts 229°
2026-05-04 17:35 -29.36811 -50.82814 2694 ft 16 kts 215°
2026-05-04 17:36 -29.36833 -50.82845 2692 ft 8 kts 167°
2026-05-04 17:36 -29.36867 -50.82820 2693 ft 0 kts 84°